Flag for Germany Weather past 2 weeks in Offenbach, Hesse, Germany

Now
57 °F

Sunny.


Feels Like: 56 °F
Forecast: 52 / 62 °F
Wind: 7 mph from Southwest

Location: Frankfurt-M-Flughafen Airport

Current Time: Aug 22, 2014 at 10:58:49 AM

Latest Report: Aug 22, 2014 at 10:20 AM


Visibility: 10 mi

Pressure: 30.01 "Hg

Humidity: 67%

Dew point: 46 °F

Location of OffenbachLocation

Historic Weather in Offenbach — Graph

°F

Offenbach temperature yesterday

Maximum temperature yesterday: 68 °F (at 4:50 PM)
Minimum temperature yesterday: 48 °F (at 6:50 AM)
Average temperature yesterday: 58 °F

Past Weeks' High & Low Weather Summary

 TemperatureHumidityPressure
High82 °F (Aug 8, 2:50 PM)100% (Aug 10, 7:20 AM)30.09 "Hg (Aug 10, 7:20 AM)
Low46 °F (Aug 20, 5:20 AM)33% (Aug 12, 6:20 PM)29.65 "Hg (Aug 13, 2:20 PM)
Average63 °F74%29.91 "Hg
* Reported Aug 7 9:20 AM — Aug 22 9:50 AM, Offenbach, Weather by CustomWeather, © 2014

Note: Actual official high and low records may vary slightly from our data, if they occured in-between our weather recording intervals... More about our weather records

Advertising

Offenbach weather history for previous 24 hours

 ConditionsComfort  
Time TempWeatherWind HumidityBarometerVisibility
9:50 AM
Aug 22
55 °FSunny.7 mph77%30.01 "Hg10 mi
9:20 AM55 °FSunny.6 mph77%30.01 "Hg10 mi
8:50 AM54 °FSunny.7 mph82%30.01 "Hg10 mi
8:20 AM52 °FSunny.3 mph88%30.01 "Hg10 mi
7:50 AM50 °FSunny.5 mph88%30.01 "Hg10 mi
7:20 AM50 °FClear.6 mph88%30.01 "Hg10 mi
6:50 AM48 °FClear.5 mph87%30.01 "Hg10 mi
6:20 AM50 °FClear.6 mph88%30.01 "Hg10 mi
5:50 AM50 °FClear.6 mph88%29.98 "Hg10 mi
5:20 AM50 °FLight fog.6 mph88%30.01 "HgN/A
4:20 AM46 °FLight fog.2 mph93%30.01 "HgN/A
3:50 AM46 °FLight fog.2 mph87%30.01 "HgN/A
3:20 AM48 °FLight fog.2 mph87%30.01 "HgN/A
2:50 AM48 °FClear.1 mph94%30.01 "Hg10 mi
2:20 AM48 °FLight fog.1 mph87%30.01 "HgN/A
1:50 AM48 °FClear.1 mph87%30.01 "Hg10 mi
1:20 AM48 °FClear.1 mph87%30.01 "Hg10 mi
12:50 AM50 °FClear.1 mph88%30.01 "Hg10 mi
12:20 AM50 °FClear.No wind88%30.01 "Hg10 mi
11:50 PM
Aug 21
50 °FClear.3 mph88%30.01 "Hg10 mi
11:20 PM52 °FClear.1 mph82%30.01 "Hg10 mi
10:50 PM52 °FClear.2 mph82%30.01 "Hg10 mi
10:20 PM55 °FClear.2 mph72%30.01 "Hg10 mi
9:50 PM57 °FClear.1 mph63%30.01 "Hg10 mi
9:20 PM59 °FSunny.2 mph59%30.01 "Hg10 mi
8:50 PM63 °FSunny.7 mph49%30.01 "Hg10 mi
8:20 PM63 °FSunny.7 mph49%30.01 "Hg10 mi
7:50 PM64 °FSunny.9 mph43%30.01 "Hg10 mi
7:20 PM66 °FSunny.8 mph40%30.01 "Hg10 mi
6:50 PM66 °FSunny.10 mph40%30.01 "Hg10 mi
6:20 PM66 °FSunny.12 mph46%30.01 "Hg10 mi
5:50 PM66 °FSunny.8 mph43%30.01 "Hg10 mi
5:20 PM66 °FSunny.9 mph40%30.01 "Hg10 mi
4:50 PM68 °FSunny.9 mph40%30.01 "Hg10 mi
4:20 PM66 °FSunny.12 mph43%30.01 "Hg10 mi
3:50 PM66 °FSunny.8 mph43%30.04 "Hg10 mi
3:20 PM64 °FSunny.8 mph46%30.04 "Hg10 mi
2:50 PM64 °FSunny.7 mph46%30.04 "Hg10 mi
2:20 PM64 °FSunny.12 mph49%30.04 "Hg10 mi
1:50 PM64 °FScattered clouds.6 mph46%30.04 "HgN/A
1:20 PM64 °FScattered clouds.9 mph49%30.04 "HgN/A
12:50 PM63 °FScattered clouds.9 mph56%30.07 "HgN/A
12:20 PM63 °FScattered clouds.6 mph56%30.07 "HgN/A
11:50 AM63 °FPassing clouds.7 mph56%30.07 "HgN/A
11:20 AM61 °FPassing clouds.6 mph59%30.07 "HgN/A
10:50 AM59 °FPassing clouds.7 mph68%30.07 "HgN/A
10:20 AM59 °FPassing clouds.6 mph68%30.07 "HgN/A
Weather by CustomWeather, © 2014

See weather overviewHow to use our weather pages